TimeEDT,TemperatureF,Dew PointF,Humidity,Sea Level PressureIn,VisibilityMPH,Wind Direction,Wind SpeedMPH,Gust SpeedMPH,PrecipitationIn,Events,Conditions,WindDirDegrees,DateUTC
12:51 AM,48.0,32.0,54,30.22,10.0,West,9.2,-,N/A,,Clear,260,2013-10-26 04:51:00
1:51 AM,48.0,32.0,54,30.21,10.0,WSW,9.2,-,N/A,,Clear,240,2013-10-26 05:51:00
2:51 AM,46.0,32.0,58,30.21,10.0,SSW,5.8,-,N/A,,Clear,210,2013-10-26 06:51:00
3:51 AM,46.9,30.0,52,30.20,10.0,WSW,9.2,-,N/A,,Clear,250,2013-10-26 07:51:00
4:51 AM,45.0,30.9,58,30.20,10.0,SW,5.8,-,N/A,,Clear,230,2013-10-26 08:51:00
5:51 AM,45.0,28.0,52,30.20,10.0,WSW,9.2,-,N/A,,Clear,240,2013-10-26 09:51:00
6:51 AM,44.1,28.0,53,30.19,10.0,WSW,8.1,-,N/A,,Partly Cloudy,240,2013-10-26 10:51:00
7:51 AM,44.1,28.9,55,30.20,10.0,WSW,9.2,-,N/A,,Partly Cloudy,240,2013-10-26 11:51:00
8:51 AM,45.0,28.9,53,30.20,10.0,SW,9.2,-,N/A,,Partly Cloudy,230,2013-10-26 12:51:00
9:51 AM,46.9,28.0,48,30.19,10.0,SW,11.5,-,N/A,,Partly Cloudy,230,2013-10-26 13:51:00
10:51 AM,50.0,28.9,44,30.17,10.0,SSW,10.4,-,N/A,,Partly Cloudy,210,2013-10-26 14:51:00
11:51 AM,51.1,26.1,38,30.14,10.0,SW,13.8,21.9,N/A,,Scattered Clouds,220,2013-10-26 15:51:00
12:51 PM,53.1,25.0,34,30.11,10.0,SW,19.6,32.2,N/A,,Scattered Clouds,230,2013-10-26 16:51:00
1:51 PM,54.0,24.1,31,30.07,10.0,WSW,18.4,27.6,N/A,,Scattered Clouds,250,2013-10-26 17:51:00
2:51 PM,55.0,24.1,30,30.03,10.0,SSW,16.1,25.3,N/A,,Scattered Clouds,210,2013-10-26 18:51:00
3:51 PM,55.0,24.1,30,30.01,10.0,SW,18.4,27.6,N/A,,Scattered Clouds,220,2013-10-26 19:51:00
4:51 PM,55.0,25.0,31,29.98,10.0,SW,16.1,25.3,N/A,,Scattered Clouds,220,2013-10-26 20:51:00
5:51 PM,54.0,26.1,34,29.96,10.0,SW,12.7,-,N/A,,Scattered Clouds,220,2013-10-26 21:51:00
6:51 PM,54.0,28.0,37,29.92,10.0,SSW,13.8,21.9,N/A,,Scattered Clouds,210,2013-10-26 22:51:00
7:51 PM,53.1,28.0,38,29.94,10.0,SW,11.5,-,N/A,,Partly Cloudy,220,2013-10-26 23:51:00
8:51 PM,52.0,28.0,40,29.94,10.0,SW,13.8,20.7,N/A,,Scattered Clouds,230,2013-10-27 00:51:00
9:51 PM,52.0,27.0,38,29.94,10.0,SSW,8.1,-,N/A,,Overcast,210,2013-10-27 01:51:00
10:51 PM,52.0,28.0,40,29.93,10.0,SW,9.2,-,N/A,,Overcast,220,2013-10-27 02:51:00
11:51 PM,52.0,28.0,40,29.91,10.0,SW,12.7,19.6,N/A,,Mostly Cloudy,220,2013-10-27 03:51:00